Regional Weather Roundup
Issued by NWS

Home | Current Version | Previous Version | Text Only | Print | Product List | Glossary On
Versions: 1 2 3 4 5 6 7 8 9 10 11 12 13 14 15 16 17 18 19 20 21 22 23 24 25 26 27 28 29 30 31 32 33 34 35 36 37 38 39 40 41 42 43 44 45 46 47 48 49 50
000
ASUS43 KMPX 301210
RWRMN
WEATHER ROUNDUP FOR MINNESOTA
NATIONAL WEATHER SERVICE TWIN CITIES/CHANHASSEN MN
700 AM CDT THU OCT 30 2014


NOTE: "FAIR" INDICATES FEW OR NO CLOUDS BELOW 12,000 FEET WITH NO
SIGNIFICANT WEATHER AND/OR OBSTRUCTIONS TO VISIBILITY. N/A MEANS
CURRENT SKY AND/OR WEATHER CONDITIONS ARE NOT AVAILABLE.

MNZ060>063-068>070-301300-
   Twin Cities Metro

CITY           SKY/WX    TMP DP  RH WIND       PRES   REMARKS
TWIN CITIES    CLOUDY    39  33  79 E5        30.05S
6HR MIN TEMP:  37; 6HR MAX TEMP:  39;

ST PAUL        CLOUDY    39  34  82 SE5       30.06S
CRYSTAL        CLOUDY    41  34  76 CALM      30.03S
BLAINE         CLOUDY    39  37  93 CALM      30.04S
LAKEVILLE      CLOUDY    36  34  93 CALM      30.03F
EDEN PRAIRIE   CLOUDY    40  34  79 NE6       30.03S
6HR MIN TEMP:  38; 6HR MAX TEMP:  40;

SOUTH ST PAUL  CLOUDY    39  34  80 CALM      30.05S
LAKE ELMO      CLOUDY    37  34  87 CALM      30.05S
$$
MNZ001>005-007-008-013>017-022>024-027-028-301300-
   Northwest Minnesota

CITY           SKY/WX    TMP DP  RH WIND       PRES   REMARKS
BEMIDJI        CLOUDY    34  32  93 N3        30.06R
HALLOCK        CLOUDY    34  30  86 NW7       30.15R WCI  28
ROSEAU         CLOUDY    34  28  80 NW5       30.12R WCI  30
WARROAD        CLOUDY    34  30  86 NW3       30.11R
THIEF RVR FALL MOCLDY    34  30  86 N7        30.11R WCI  28
CROOKSTON      CLOUDY    36  34  93 N8        30.12R
FOSSTON        CLOUDY    34  32  93 CALM      30.08R
DETROIT LAKES  PTCLDY    37  36  93 NE5       30.05R
MOORHEAD       CLOUDY    39  39 100 NE5       30.07R FOG
PARK RAPIDS    LGT RAIN  35  34  96 NE5       30.04R WCI  31
MAHNOMEN       CLOUDY    35  35  98 NE5       30.05S FOG     WCI  31
$$
MNZ006-009>011-018-025>026-301300-
   North Central Minnesota

CITY           SKY/WX    TMP DP  RH WIND       PRES   REMARKS
BAUDETTE       CLOUDY    35  32  88 W3        30.07S
FLAG ISLAND    CLOUDY    36  34  93 NW12      30.09R
INTL FALLS     CLOUDY    34  32  92 W5        30.06R WCI  30
6HR MIN TEMP:  33; 6HR MAX TEMP:  35; 6HR PCP: TRACE;

WASKISH        MOCLDY    32  30  93 CALM      30.09R
BIG FORK       CLOUDY    34  32  93 CALM      30.07R
LONGVILLE      DRIZZLE   34  34 100 CALM      30.05R
GRAND RAPIDS   CLOUDY    34  30  86 CALM      30.05R
CRANE LAKE     LGT RAIN  34  32  93 CALM      30.07R
ORR            CLOUDY    34  30  86 NW3       30.03R
COOK           CLOUDY    34  34 100 W3        30.05R
WALKER         CLOUDY    34  32  94 CALM      30.06R
$$
MNZ012-019>021-037-301300-
   Northeast Minnesota

CITY           SKY/WX    TMP DP  RH WIND       PRES   REMARKS
DULUTH         CLOUDY    36  32  85 NW3       30.03R
6HR MIN TEMP:  36; 6HR MAX TEMP:  36; 6HR PCP: TRACE;

ELY            CLOUDY    34  34 100 CALM      30.03S
HIBBING        CLOUDY    36  32  85 N6        30.04S
EVELETH        CLOUDY    34  34 100 NW5       30.05S WCI  30
DULUTH HARBOR  CLOUDY    39  36  87 CALM      30.07R
TWO HARBORS    CLOUDY    37 N/A N/A CALM      30.03R
SILVER BAY     CLOUDY    36  34  93 CALM      30.02R
GRAND MARAIS     N/A     41  35  79 CALM      30.02F
G MARAIS ARPRT CLOUDY    34  30  86 W2        30.00S
$$
MNZ029>031-032-039>041-046>048-054>057-064-301300-
   West Central Minnesota

CITY           SKY/WX    TMP DP  RH WIND       PRES   REMARKS
FERGUS FALLS   CLOUDY    39  37  93 CALM      30.05R
WHEATON        CLOUDY    37  36  93 CALM      30.05R
MORRIS         PTCLDY    37  36  93 E3        30.01R FOG
ALEXANDRIA     CLOUDY    39  34  82 CALM      30.02R
ELBOW LAKE     CLOUDY    37  37  97 CALM      30.02R
WADENA         CLOUDY    34  34 100 NE3       30.04R
GLENWOOD       MOCLDY    37  36  93 CALM      30.01R
APPLETON       PTCLDY    37  34  87 E3        30.01S FOG
BENSON         CLOUDY    39  36  87 CALM      30.02R
ORTONVILLE     PTCLDY    36  32  87 CALM      30.01S FOG
MADISON        FAIR      39  39 100 CALM      30.02R FOG
WILLMAR        CLOUDY    39  36  87 E5        30.02R
$$
MNZ033>034-036-042>043-049>051-058-059-301300-
   Central Minnesota

CITY           SKY/WX    TMP DP  RH WIND       PRES   REMARKS
ST CLOUD       CLOUDY    39  34  82 CALM      30.03R
6HR MIN TEMP:  38; 6HR MAX TEMP:  39; 6HR PCP:  0.01;

SAUK CENTRE    CLOUDY    37  34  90 CALM      30.02R
PAYNESVILLE    CLOUDY    36  33  90 CALM      30.02S
AITKIN         CLOUDY    37  34  87 CALM      30.03S
PINE RIVER     CLOUDY    36  36 100 N3        30.08R
BRAINERD       CLOUDY    36  33  89 NE5       30.05R
STAPLES        CLOUDY    36  34  93 CALM      30.04R
LONG PRAIRIE   CLOUDY    36  34  93 CALM      30.02R
LITTLE FALLS   CLOUDY    36  32  87 CALM      30.03R
LITCHFIELD     CLOUDY    39  39 100 CALM      30.02S
BUFFALO        CLOUDY    39  34  81 E3        30.04S
MAPLE LAKE     CLOUDY    40  37  87 CALM      30.03F
$$
MNZ037-044-045-052-053-301300-
   East Central Minnesota

CITY           SKY/WX    TMP DP  RH WIND       PRES   REMARKS
PRINCETON      CLOUDY    37  36  93 CALM      30.05R
MORA           CLOUDY    34  32  93 CALM      30.06S
CAMBRIDGE      CLOUDY    39  30  70 CALM      30.03R
RUSH CITY      CLOUDY    36  33  88 CALM      30.05S
MOOSE LAKE     CLOUDY    34  32  93 CALM      30.03S
HINCKLEY       CLOUDY    34  34 100 CALM      30.05S
CLOQUET        CLOUDY    34  32  93 CALM      30.04S
MCGREGOR       CLOUDY    34  32  93 CALM      30.05R
$$
MNZ071>073-080-081-089-090-097-098-301300-
   Southwest Minnesota

CITY           SKY/WX    TMP DP  RH WIND       PRES   REMARKS
MONTEVIDEO     CLOUDY    37  37 100 CALM      30.03R
GRANITE FALLS  CLOUDY    38  36  90 CALM      30.03R
CANBY          PTCLDY    37  33  87 N3        30.02R
MARSHALL       CLOUDY    41  34  75 CALM      29.99R
REDWOOD FALLS  CLOUDY    40  36  86 SE8       30.00S
OLIVIA         MOCLDY    39  36  87 E6        30.00S
PIPESTONE      MOCLDY    41  34  75 CALM      29.98R
WINDOM           N/A     39  34  81 E3        30.00S
WORTHINGTON    CLOUDY    43  34  70 SE3       29.99S
JACKSON        CLOUDY    41  32  70 SE6       30.00S
TRACY          CLOUDY    43  36  77 S6        29.99S
SLAYTON        CLOUDY    40  34  80 CALM      29.99S
$$
MNZ065>067-074>077-082>085-091>093-301300-
   South Central Minnesota

CITY           SKY/WX    TMP DP  RH WIND       PRES   REMARKS
MANKATO        CLOUDY    41  34  75 SE7       30.03R
NEW ULM        CLOUDY    39  37  93 E5        30.01S
ST JAMES       MOCLDY    39  36  87 E3        30.02S
FAIRMONT       CLOUDY    41  32  70 S7        30.01S
GLENCOE        CLOUDY    39  37  91 CALM      30.02R
FARIBAULT      CLOUDY    39  36  87 SE6       30.03F
OWATONNA       CLOUDY    39  34  81 CALM      30.03F
WASECA         CLOUDY    37  32  81 E6        30.05R
ALBERT LEA     CLOUDY    37  36  93 CALM      30.02S
$$
MNZ078>079-086>088-094>096-301300-
   Southeast Minnesota

CITY           SKY/WX    TMP DP  RH WIND       PRES   REMARKS
ROCHESTER      CLOUDY    36  33  89 S6        30.05S
6HR MIN TEMP:  34; 6HR MAX TEMP:  36;

RED WING       MOCLDY    39  34  81 CALM      30.05S
STANTON        CLOUDY    40  34  80 S3        30.03S
DODGE CENTER   CLOUDY    37  36  93 SE5       30.04S
WINONA         MOCLDY    36  34  93 CALM      30.07F
AUSTIN         CLOUDY    37  34  87 SE3       30.03S
PRESTON        CLOUDY    34  32  91 S5        30.06S WCI  30
$$
ABBREVIATIONS USED IN REMARKS
   TC - TEMPERATURES IN CELSIUS
  WCI - WIND CHILL INDEX
   HX - HEAT INDEX
  VSB - VISIBILITY
$$



USA.gov is the U.S. government's official web portal to all federal, state and local government web resources and services.